Nouasseur, Morocco

6:42 PM WET on May 25, 2017 (GMT +0000)
Nouasseur

Weather History for GMMN - February, 2014

Change the Weather History Date:

Tuesday, February 18, 2014

  Actual Average Record
Temperature  
Mean Temperature 50 °F -  
Max Temperature 59 °F 67 °F 75 °F (2004)
Min Temperature 40 °F 45 °F 32 °F (2005)
Degree Days  
Heating Degree Days 16    
Moisture  
Dew Point 46 °F    
Average Humidity 84    
Maximum Humidity 95    
Minimum Humidity 68    
Precipitation  
Precipitation 0.12 in - - ()
Sea Level Pressure  
Sea Level Pressure 30.06 in    
Wind  
Wind Speed 8 mph ()    
Max Wind Speed 20 mph    
Max Gust Speed -    
Visibility 5.9 miles    
Events Rain    
Averages and records for this station are not official NWS values.
T = Trace of Precipitation, MM = Missing Value Source: Averaged Metar Reports

Daily Weather History Graph

Daily Weather History Graph

Search for Another Location

Airport or City:

Trip Planner

Search our weather history database for the weather conditions in past years. The results will help you decide how hot, cold, wet, or windy it might be!

Date:

Astronomy

Feb. 18, 2014 Rise Set
Actual Time 7:11 AM WET 6:17 PM WET
Civil Twilight 6:46 AM WET 6:42 PM WET
Nautical Twilight 6:17 AM WET 7:11 PM WET
Astronomical Twilight 5:48 AM WET 7:40 PM WET
Moon 9:44 PM WET (2/18) 8:48 AM WET (2/18)
Length of Visible Light 11h 56m
Length of Day
11h 06m
Waning Gibbous, 89% of the Moon is Illuminated
Feb 18
Waning Gibbous
Feb 22
Last Quarter
Mar 1
New
Mar 8
First Quarter
Mar 16
Full

Hourly Weather History & Observations

Time (WET) Temp. Windchill Dew Point Humidity Pressure Visibility Wind Dir Wind Speed Gust Speed Precip Events Conditions
12:00 AM 45 °F - 42 °F 83% 29.97 in 6 mi SSW 6.9 mph - -   Partly Cloudy
12:00 AM 44.6 °F 40.7 °F 41.0 °F 87% 29.95 in 6.2 mi SSW 6.9 mph - N/A   Scattered Clouds
12:30 AM 42.8 °F 38.6 °F 41.0 °F 93% 29.95 in 6.2 mi SSW 6.9 mph - N/A   Scattered Clouds
1:00 AM 42.8 °F 39.3 °F 39.2 °F 87% 29.95 in 6.2 mi SW 5.8 mph - N/A   Scattered Clouds
1:30 AM 42.8 °F 41.1 °F 39.2 °F 87% 29.95 in 6.2 mi SSW 3.5 mph - N/A   Scattered Clouds
2:00 AM 42.8 °F 41.1 °F 39.2 °F 87% 29.95 in 6.2 mi SSW 3.5 mph - N/A   Scattered Clouds
2:30 AM 41.0 °F 37.1 °F 39.2 °F 93% 29.95 in 6.2 mi SSW 5.8 mph - N/A   Scattered Clouds
3:00 AM 42 °F - 40 °F 88% 29.98 in 6 mi SSW 5.8 mph - -   Partly Cloudy
3:00 AM 42.8 °F 39.3 °F 39.2 °F 87% 29.95 in 6.2 mi SSW 5.8 mph - N/A   Scattered Clouds
3:30 AM 44.6 °F 41.4 °F 42.8 °F 93% 29.95 in 6.2 mi SW 5.8 mph - N/A   Scattered Clouds
4:00 AM 46.4 °F 43.5 °F 44.6 °F 93% 29.95 in - WSW 5.8 mph - N/A Rain Heavy Rain
4:30 AM 48.2 °F - 46.4 °F 93% 29.95 in 4.3 mi SSW 4.6 mph - N/A Rain Light Rain
5:00 AM 48.2 °F - 46.4 °F 93% 29.95 in 5.6 mi South 6.9 mph - N/A   Light Drizzle
5:30 AM 48.2 °F - 46.4 °F 93% 29.98 in 5.0 mi South 4.6 mph - N/A Rain Rain
6:00 AM 49 °F - 47 °F 90% 30.00 in 4 mi SE 3.5 mph - - Rain Rain
6:00 AM 48.2 °F - 46.4 °F 93% 29.98 in 4.3 mi SE 3.5 mph - N/A Rain Rain
6:30 AM 48.2 °F - 46.4 °F 93% 29.98 in - WSW 4.6 mph - N/A Rain Rain
7:00 AM 48.2 °F - 46.4 °F 93% 30.01 in 3.1 mi SW 8.1 mph - N/A Rain Light Rain
7:30 AM 48.2 °F - 46.4 °F 93% 30.01 in 6.2 mi SSW 6.9 mph - N/A   Mostly Cloudy
8:00 AM 48.2 °F - 46.4 °F 93% 30.01 in 5.0 mi South 5.8 mph - N/A   Mostly Cloudy
8:30 AM 48.2 °F - 46.4 °F 93% 30.04 in 6.2 mi South 10.4 mph - N/A   Mostly Cloudy
9:00 AM 49 °F - 48 °F 95% 30.07 in 5 mi SSW 9.2 mph - - Rain Light Rain
9:00 AM 50.0 °F - 48.2 °F 94% 30.04 in 5.0 mi SSW 9.2 mph - N/A   Mostly Cloudy
9:30 AM 51.8 °F - 50.0 °F 94% 30.06 in 6.2 mi SSW 13.8 mph - N/A   Mostly Cloudy
10:00 AM 53.6 °F - 50.0 °F 88% 30.06 in 6.2 mi SSW 13.8 mph - N/A   Mostly Cloudy
10:30 AM 53.6 °F - 50.0 °F 88% 30.06 in 6.2 mi SSW 15.0 mph - N/A   Mostly Cloudy
11:00 AM - - - N/A% 0.00 in - North - - N/A   Mostly Cloudy
11:30 AM 55.4 °F - 50.0 °F 82% 30.09 in 6.2 mi WSW 15.0 mph - N/A   Scattered Clouds
12:00 PM 56 °F - 50 °F 75% 30.11 in 6 mi WSW 13.8 mph - -   Partly Cloudy
12:00 PM 57.2 °F - 50.0 °F 77% 30.09 in 6.2 mi WSW 13.8 mph - N/A   Scattered Clouds
12:30 PM 57.2 °F - 50.0 °F 77% 30.09 in 6.2 mi WSW 12.7 mph - N/A   Scattered Clouds
1:00 PM 57.2 °F - 51.8 °F 82% 30.09 in 6.2 mi WSW 10.4 mph - N/A   Scattered Clouds
1:30 PM 59.0 °F - 50.0 °F 72% 30.06 in 6.2 mi West 11.5 mph - N/A   Scattered Clouds
2:00 PM 55.4 °F - 50.0 °F 82% 30.09 in 6.2 mi NW 16.1 mph - N/A   Scattered Clouds
2:30 PM 57.2 °F - 50.0 °F 77% 30.06 in 6.2 mi NW 18.4 mph - N/A   Scattered Clouds
3:00 PM 58 °F - 51 °F 69% 30.09 in 6 mi NNW 16.1 mph - -   Mostly Cloudy
3:00 PM 59.0 °F - 50.0 °F 72% 30.06 in 6.2 mi NNW 16.1 mph - N/A   Scattered Clouds
3:30 PM 59.0 °F - 50.0 °F 72% 30.09 in 6.2 mi NNW 17.3 mph - N/A   Scattered Clouds
4:00 PM 59.0 °F - 50.0 °F 72% 30.09 in 6.2 mi NW 18.4 mph - N/A   Scattered Clouds
4:30 PM 57.2 °F - 48.2 °F 72% 30.09 in 6.2 mi NW 19.6 mph - N/A   Scattered Clouds
5:00 PM 57.2 °F - 48.2 °F 72% 30.12 in 6.2 mi NNW 19.6 mph - N/A   Scattered Clouds
5:30 PM 55.4 °F - 48.2 °F 77% 30.12 in 6.2 mi NNW 16.1 mph - N/A   Scattered Clouds
6:00 PM 54 °F - 47 °F 68% 30.15 in 6 mi NNW 13.8 mph - -   Mostly Cloudy
6:00 PM 53.6 °F - 46.4 °F 77% 30.12 in 6.2 mi NNW 13.8 mph - N/A   Scattered Clouds
6:30 PM 53.6 °F - 46.4 °F 77% 30.15 in 6.2 mi NNW 10.4 mph - N/A   Mostly Cloudy
7:00 PM 51.8 °F - 44.6 °F 76% 30.15 in 6.2 mi NNW 9.2 mph - N/A   Mostly Cloudy
7:30 PM 51.8 °F - 44.6 °F 76% 30.18 in 6.2 mi NNW 5.8 mph - N/A   Mostly Cloudy
8:00 PM 50.0 °F - 44.6 °F 82% 30.18 in 6.2 mi NW 2.3 mph - N/A   Mostly Cloudy
8:30 PM 50.0 °F - 44.6 °F 82% 30.21 in 6.2 mi Calm Calm - N/A   Scattered Clouds
9:00 PM 47 °F - 43 °F 81% 30.24 in 6 mi Calm Calm - -   Partly Cloudy
9:00 PM 48.2 °F - 42.8 °F 82% 30.21 in 6.2 mi Calm Calm - N/A   Scattered Clouds
9:30 PM 46.4 °F - 41.0 °F 81% 30.21 in 6.2 mi SW 2.3 mph - N/A   Scattered Clouds
10:00 PM 46.4 °F 43.5 °F 42.8 °F 87% 30.21 in 6.2 mi SW 5.8 mph - N/A   Scattered Clouds
10:30 PM 48.2 °F - 44.6 °F 87% 30.24 in 6.2 mi WSW 5.8 mph - N/A   Mostly Cloudy
11:30 PM 44.6 °F 40.2 °F 42.8 °F 93% 30.21 in 6.2 mi SSW 8.1 mph - N/A   Mostly Cloudy